Other Public Products
Issued by NWS Grand Forks, ND

Home | Current Version | Previous Version | Text Only | Print | Product List | Glossary On
Versions: 1 2 3 4 5 6 7 8 9 10 11 12 13 14 15 16 17 18 19 20 21 22 23 24 25 26 27 28 29 30 31 32 33 34 35 36 37 38 39 40 41 42 43 44 45 46 47 48 49 50
000
FPUS83 KFGF 060331
OPUFGF
PRAIRIE TO PINES WEATHER ROUNDUP
NATIONAL WEATHER SERVICE EASTERN NORTH DAKOTA/GRAND FORKS ND
900 PM CST FRI FEB 05 2016

 **SATELLITE DATA USED TO AUGMENT SKY COVER AT AUTOMATED STATIONS**
 *****  WEATHER ACROSS EASTERN NORTH DAKOTA  *****

CITY           SKY/WX    TMP DP  RH WIND       PRES   REMARKS
GRAND FORKS    CLOUDY    18  14  84 S7        30.09F WCI   9
GRAND FORKS AF CLOUDY    18  15  86 SW7       30.08F WCI   9
GRAND CITY NWS   N/A     19 N/A N/A W5          N/A  WCI  13
BUXTON           N/A    N/A N/A N/A CALM        N/A
DEVILS LAKE    CLOUDY    22  18  85 S7        30.04F WCI  13
FARGO          CLEAR     19  15  84 S5        30.13S WCI  12
WAHPETON ARPT    N/A    N/A N/A N/A CALM      30.15F VSB 3/4
$$

 *****  WEATHER ACROSS CENTRAL AND WESTERN NORTH DAKOTA  *****

CITY           SKY/WX    TMP DP  RH WIND       PRES   REMARKS
JAMESTOWN      CLEAR     22  16  78 S3        30.07F
BISMARCK       CLEAR     28  22  78 CALM      30.07F
MINOT          CLOUDY    32  21  64 SW8       30.00S WCI  25
MINOT AFB      CLOUDY    26  23  89 CALM      29.99F
GARRISON         N/A     26  21  81 CALM      30.02F
WILLISTON      CLEAR     25  21  85 SW3       29.98F
DICKINSON      PTCLDY    31  22  69 SW13      30.01F WCI  21
HETTINGER      CLEAR     28  20  71 W6        30.08F WCI  22
$$

 *****  OTHER OBSERVATIONS NORTHEAST NORTH DAKOTA  *****

CITY           SKY/WX    TMP DP  RH WIND       PRES   REMARKS
WALHALLA       FAIR      18  18 100 SE3       30.05F
LANGDON        FAIR      18  16  93 SW10      30.01F WCI   6
CAVALIER       FAIR      16  14  93 S6        30.06F WCI   7
GRAFTON        FAIR      14  12  92 S8        30.09F WCI   3
CANDO          MOCLDY    16  16 100 SW6       30.05S WCI   7
FORT TOTTEN      N/A     22  17  81 SE2       29.95S
ROLLA          CLOUDY    23  19  86 SE3       30.00S
RUGBY          FAIR      23  19  86 S8        30.02S WCI  14
 ***** THE ABOVE OBSERVATIONS ARE NON NWS ARE NOT QUALITY
        CONTROLLED AND MAY MIS-REPORT RAIN FOR SNOW...
$$

 *****  OTHER OBSERVATIONS SOUTHEAST NORTH DAKOTA *****

CITY           SKY/WX    TMP DP  RH WIND       PRES   REMARKS
COOPERSTOWN    NOT AVBL
VALLEY CITY    FAIR      18  18 100 SW7       30.11R WCI   8
OAKES          FAIR      19  18  93 S8        30.12F WCI   9
GWINNER          N/A     14  14 100 S8        30.13S WCI   3
SHEYENNE NWR     N/A     13  11  90 SW3       29.95
BUFFALO          N/A     23  18  83 S6          N/A  WCI  15
WYNDMERE         N/A      5   3  92 SW2         N/A
 ***** THE ABOVE OBSERVATIONS ARE NON NWS ARE NOT QUALITY
       CONTROLLED AND MAY MIS-REPORT RAIN FOR SNOW...
$$

  *****  WEATHER ACROSS NORTHERN MINNESOTA  *****

CITY           SKY/WX    TMP DP  RH WIND       PRES   REMARKS
FLAG ISLAND    CLOUDY    19  14  79 CALM      30.05S
WARROAD        CLOUDY    19  16  86 SW6       30.07S WCI  11
ROSEAU         CLOUDY    19  16  86 SW5       30.07S WCI  13
HALLOCK        CLOUDY    12  10  92 SE8       30.07F WCI   1
THF RVR FALLS  CLOUDY    10   9  92 S5        30.09F WCI   2
HALSTAD          N/A     16  14  91 S6          N/A  WCI   8
FOSSTON        FOG        9   7  92 S5        30.10S VSB<1/4 WCI   0
BAUDETTE       CLOUDY    21  14  74 W5        30.05F WCI  15
WASKISH        CLOUDY    18  16  93 SW6       30.07F WCI   9
CROOKSTON      CLOUDY    16  12  86 S6        30.11F WCI   7
$$
  *****  WEATHER ACROSS CENTRAL AND WEST MINNESOTA  *****

CITY           SKY/WX    TMP DP  RH WIND       PRES   REMARKS
BEMIDJI        CLOUDY    17  16  95 SW5       30.09S FOG     WCI  10
PARK RAPIDS    CLOUDY    18  14  84 SW5       30.09F WCI  11
WADENA         CLOUDY    21  19  93 W5        30.12S WCI  15
DETROIT LAKES  MOCLDY    21  21 100 SW5       30.12S WCI  15
MOORHEAD       CLEAR     16  16 100 S3        30.14F
FERGUS FALLS   FOG       19  16  86 CALM      30.17S VSB 1/4
ELBOW LAKE     SNOW      16  15  96 E3        30.14F VSB<1/4
MORRIS MN      FOG       16  16 100 SW5       30.15S VSB<1/4 WCI   9
STAPLES        CLOUDY    23  19  86 W6        30.12S WCI  16
WHEATON        CLOUDY    21  19  93 SW5       30.17S WCI  15
$$
  *****  WEATHER ELSEWHERE ACROSS MINNESOTA  *****

CITY           SKY/WX    TMP DP  RH WIND       PRES   REMARKS
DULUTH         CLOUDY    24  13  62 W10       30.08S WCI  14
INTRNTL FALLS  CLOUDY    22  15  75 SW6       30.04F WCI  14
ELY            CLOUDY    23  18  80 W6        30.04F WCI  16
CLOQUET        CLOUDY    25  14  63 SW9       30.10R WCI  15
BRAINERD       CLOUDY    23  17  78 S5        30.12F WCI  17
HIBBING        CLOUDY    23  14  68 S3        30.06F
ALEXANDRIA     CLOUDY    24  20  84 W9        30.14R WCI  14
SAINT CLOUD    CLOUDY    21  17  84 S5        30.15S WCI  15
MINNEAPOLIS    CLOUDY    25  20  81 S9        30.19F WCI  15
$$

  *****  WEATHER ACROSS SOUTH DAKOTA  *****

CITY           SKY/WX    TMP DP  RH WIND       PRES   REMARKS
SIOUX FALLS    CLOUDY    27  25  92 NW3       30.20S
BROOKINGS      FOG       21  19  93 SW5       30.17S VSB 1   WCI  15
WATERTOWN      FOG       18  15  88 S5        30.14F VSB 1/4 WCI  11
HURON          CLEAR     26  23  88 SW8       30.19S WCI  18
SISSETON         N/A     20  17  88 W5        30.15S WCI  13
ABERDEEN       CLEAR     23  18  81 S5        30.15F WCI  17
MITCHELL       CLEAR     28  27  96 SW6       30.21S WCI  22
PIERRE         CLEAR     30  24  78 SW8       30.16F WCI  22
MOBRIDGE       CLEAR     29  21  72 SE7       30.09F WCI  22
RAPID CITY     CLEAR     23  18  81 CALM      30.16S
$$

  *****  SOME WEATHER IN NEARBY STATES *****

CITY           SKY/WX    TMP DP  RH WIND       PRES   REMARKS
GLASGOW MT     MOCLDY    36  26  67 SW8       29.94F
GREAT FALLS MT CLOUDY    42  23  46 SW25      30.04F
CHEYENNE WY    CLEAR     21   7  54 NW8       30.23S WCI  11
SCOTTSBLUFF NE CLEAR     16  11  80 NW10      30.26F WCI   4
OMAHA NE       MOCLDY    28  27  96 S5        30.25R FOG     WCI  23
DES MOINES IA  FLURRIES  30  24  78 S9        30.27F WCI  22
DAVENPORT IA   PTCLDY    27  20  75 S5        30.32F WCI  22
CHICAGO IL     CLOUDY    29  21  72 W6        30.33F WCI  23
EAU CLAIRE WI  FLURRIES  22  14  71 MISG      30.21S
LA CROSSE WI   CLOUDY    24  15  68 S8        30.25F WCI  15
$$

  *****  SOME NATIONAL WEATHER *****

CITY           SKY/WX    TMP DP  RH WIND       PRES   REMARKS
LA GUARDIA NY  CLEAR     35  17  47 NW16G26   30.30R
RALEIGH NC     PTCLDY    32  24  72 CALM      30.40R
ATLANTA GA     PTCLDY    37  17  44 NW7       30.35F
NEW ORLEANS LA PTCLDY    42  27  55 CALM      30.39R
OKLAHOMA CITY  CLOUDY    48  28  46 S12       30.25S
ALBUQUERQUE NM CLEAR     35  10  35 N9        30.42R
SALT LAKE CITY PTCLDY    30  22  72 SE7       30.53F WCI  23
LOS ANGELES CA CLEAR     67  38  34 CALM      30.26R
BOISE ID       MOCLDY    36  30  79 SE16      30.43F
SEATTLE WA     CLOUDY    49  42  77 S21G35    30.08F
$$

*** WEATHER ACROSS MANITOBA...SASKATCHEWAN AND ONTARIO ***
                ***ONTARIO***

CITY           SKY/WX    TMP DP  RH WIND       PRES   REMARKS
GERALDTON      FLURRIES   9   7  92 CALM      30.02F
THUNDER BAY    FLURRIES  16  16 100 W2        30.06F
SIOUX LOOKOUT  FLURRIES  12  10  92 W2        30.00F
TORONTO        MOCLDY    30  21  69 SW7       30.26F WCI  23
BIG TROUT LK   LGT SNOW -13 -18  77 N8        30.05R WCI -30
PICKLE LAKE    NOT AVBL
DRYDEN         CLOUDY    16  12  86 W7        30.01S WCI   6
KENORA         CLOUDY    16  12  86 W3        30.02F
$$
                *** MANITOBA***

CITY           SKY/WX    TMP DP  RH WIND       PRES   REMARKS
BRANDON        CLOUDY    16  12  86 W2        29.99F
DAUPHIN        FLURRIES  19  16  86 S3        29.98F
ISLAND LAKE    PTCLDY    -9 -15  77 VRB2      30.09F
PILOT MOUND      N/A     16  14  93 S6          N/A  WCI   7
THE PAS        FLURRIES   9   5  85 SE12      29.97F WCI  -6
THOMPSON       CRYSTALS -22 -27  76 VRB2      30.11S
WINNIPEG       CLOUDY    18  14  86 S8        30.06F WCI   7
LYNN LAKE      CLOUDY   -15 -20  76 SE7       30.00F WCI -31
CHURCHILL      CLEAR    -35 -42  67 W5        30.21F WCI -50
GILLAM         CLEAR    -29 -36  68 CALM      30.17S
$$
                ***SASKATCHEWAN***

CITY           SKY/WX    TMP DP  RH WIND       PRES   REMARKS
ESTEVAN        PTCLDY    21  19  93 S7        29.94F WCI  13
KINDERSLEY     PTCLDY    28  23  80 S12       29.71F WCI  18
LLOYDMINSTER   CLOUDY    27  21  80 S3        29.62F
PRINCE ALBERT  MOCLDY    18  14  86 SE7       29.76F WCI   8
REGINA         PTCLDY    23  19  86 SE9       29.87F WCI  13
YORKTON        MOCLDY    19  16  86 SE8       29.90F WCC1F1C2F2C3F3C4F4C5F5C6F6C7F7C8F8C9F9CaFaCbFbCcFcCdFdCe!



USA.gov is the U.S. government's official web portal to all federal, state and local government web resources and services.